Theta_e
274 273 272 272 271 271 270 270 270 269 269 269 269 269 268 268 268 268 267 267 267 267
273 272 271 271 271 270 270 270 269 268 268 268 268 268 268 267 267 267 267 267 268 268
272 272 271 270 269 269 269 269 268 267 267 267 267 267 267 266 266 266 267 268 267 267
271 270 270 269 269 268 268 267 267 266 266 266 266 266 266 266 266 266 266 267 268 268
270 269 268 268 268 268 267 267 266 266 266 265 265 266 265 265 265 265 266 267 267 268
268 268 267 267 267 266 266 265 265 265 264 264 265 265 265 265 265 266 267 268 268 269
267 266 266 266 265 265 264 264 264 264 264 264 264 265 265 266 266 267 269 270 270 270
265 265 264 264 263 263 263 263 263 263 263 264 264 265 266 268 268 269 269 269 270 271
263 262 262 262 262 262 262 262 262 262 262 262 264 267 270 271 269 269 270 268 269 270
260 260 259 260 260 260 260 261 260 261 262 261 263 268 271 272 270 269 268 268 268 267
257 257 258 258 258 258 259 259 260 261 261 262 262 268 270 271 270 269 269 268 268 266
257 258 258 257 257 258 260 260 260 262 261 261 261 267 270 271 269 269 268 269 268 269
259 258 257 257 258 260 259 260 261 261 261 261 261 267 271 272 270 267 267 269 270 271
260 259 258 259 259 259 259 260 259 260 261 262 264 264 271 272 270 268 268 266 266 266
Wind_Speed
7 5 5 7 8 6 7 8 10 9 9 10 11 9 10 8 9 10 9 12 11 10
6 8 8 9 8 7 9 9 10 10 10 10 11 11 10 8 11 10 10 11 12 10
7 8 8 8 10 10 10 10 11 11 11 11 11 11 11 10 11 11 10 9 13 13
8 8 9 9 9 10 11 11 10 11 11 11 11 11 11 11 13 12 12 13 13 16
9 9 9 10 11 11 11 10 11 11 11 12 12 11 12 12 13 14 15 15 16 17
8 9 10 11 12 11 11 11 11 11 11 12 12 12 12 12 14 14 15 15 15 16
9 10 11 11 12 12 11 11 11 11 11 11 12 13 14 14 15 16 15 14 14 15
10 10 11 11 12 11 11 10 11 12 11 11 11 10 14 15 15 12 14 14 14 14
9 10 10 11 11 11 11 11 11 11 12 12 10 21 24 22 12 13 12 11 13 13
9 10 10 10 10 10 11 11 11 11 11 12 12 23 25 24 11 10 11 12 12 11
8 9 8 9 10 10 10 10 10 11 11 11 11 23 24 23 11 11 12 11 11 11
6 10 9 10 10 10 10 10 9 10 12 12 13 23 23 21 9 10 11 10 11 10
8 8 8 10 10 10 9 10 9 12 11 13 14 20 23 20 9 10 10 9 7 17
9 9 7 8 8 8 9 10 10 11 11 13 12 11 23 24 10 10 5 7 8 9
Wind_Direction
351 338 327 326 323 315 322 317 315 330 317 317 313 312 310 307 301 304 305 299 294 291
342 334 325 323 315 317 316 311 326 315 314 310 311 312 313 303 307 301 296 293 288 288
325 323 319 316 318 317 314 316 312 311 308 308 309 312 308 307 302 299 293 292 295 290
321 321 319 314 313 315 310 312 307 305 306 309 308 309 309 303 297 297 295 290 291 294
317 317 314 312 311 310 309 308 305 304 304 306 305 305 306 300 298 292 290 296 295 294
316 315 314 314 312 312 310 308 303 305 302 303 302 305 299 294 286 287 290 289 288 297
323 322 319 317 315 314 313 305 303 303 299 301 303 305 300 292 288 282 286 288 293 296
322 323 320 319 316 314 308 304 304 306 304 304 303 300 296 290 284 291 295 293 303 301
319 321 319 316 315 313 309 308 307 307 305 307 304 307 307 309 312 303 304 306 301 301
312 314 312 309 311 310 311 311 308 307 310 305 303 310 317 316 310 309 302 299 301 302
301 306 309 311 309 309 309 307 307 311 304 304 303 319 317 317 313 298 293 295 298 292
304 313 317 310 308 306 307 315 311 309 309 305 300 313 320 314 315 297 293 296 298 299
306 305 307 299 306 310 309 306 311 307 305 301 296 306 318 329 315 305 304 302 336 328
311 309 295 296 310 301 306 306 304 301 299 297 293 303 323 326 335 311 13 348 339 332